Location: Grossmotten
(48.5500°N, 15.3833°E)
Time: 06:55:46
(UTC+00:00)

COSMOS 2428 - Pass Details

Date: 15 November 2019
Orbit: 844 x 858 km, 70.9° (Epoch: 07 December)

Event Time Altitude Azimuth Distance (km) Brightness Sun altitude
Exits shadow 05:03:39 - 334° (NNW) 3,431 5.5 -10.4°
Rises 05:03:40 0° 335° (NNW) 3,425 5.5 -10.4°
Reaches altitude 10° 05:06:18 10° 343° (NNW) 2,488 4.8 -10.0°
Maximum altitude 05:11:38 39° 51° (NE) 1,271 4.0 -9.1°
Drops below altitude 10° 05:16:56 10° 120° (ESE) 2,484 6.7 -8.3°
Sets 05:19:33 0° 128° (SE) 3,418 7.5 -7.9°
